Location: ??????????
(54.8537°N, 38.8755°E)
Time: 03:42:16
(UTC+00:00)

Vanguard 2 Rocket - Pass Details

Date: 21 September 2024
Orbit: 553 x 3298 km, 32.9° (Epoch: 10 October)

Event Time Altitude Azimuth Distance (km) Brightness Sun altitude
Rises 03:06:26 0° 259° (WSW) 5,580 - -1.2°
Exits shadow 03:06:42 - 258° (WSW) 5,547 10.2 -1.1°
Reaches altitude 10° 03:12:02 10° 240° (WSW) 5,093 10.2 -0.4°
Maximum altitude 03:19:42 16° 209° (SSW) 5,164 10.5 0.7°
Drops below altitude 10° 03:28:40 10° 180° (S) 6,079 11.1 2.0°
Sets 03:36:47 0° 163° (SSE) 7,264 11.8 3.2°
